TimePST,TemperatureF,Dew PointF,Humidity,Sea Level PressureIn,VisibilityMPH,Wind Direction,Wind SpeedMPH,Gust SpeedMPH,PrecipitationIn,Events,Conditions,WindDirDegrees,DateUTC
12:09 AM,42.8,39.2,87,30.12,1.0,Calm,Calm,-,N/A,,Mist,0,2012-12-11 08:09:00
12:14 AM,42.8,39.2,87,30.12,0.8,Calm,Calm,-,N/A,,Mist,0,2012-12-11 08:14:00
12:22 AM,41.0,39.2,93,30.12,0.2,Calm,Calm,-,N/A,Fog,Fog,0,2012-12-11 08:22:00
12:40 AM,41.0,39.2,93,30.11,0.2,Calm,Calm,-,N/A,Fog,Fog,0,2012-12-11 08:40:00
12:53 AM,41.0,37.9,89,30.11,0.2,Calm,Calm,-,N/A,Fog,Fog,0,2012-12-11 08:53:00
1:08 AM,41.0,39.2,93,30.10,1.0,ESE,4.6,-,N/A,,Mist,120,2012-12-11 09:08:00
1:11 AM,42.8,39.2,87,30.10,2.0,ESE,3.5,-,N/A,,Scattered Clouds,120,2012-12-11 09:11:00
1:33 AM,42.8,41.0,93,30.10,1.2,ESE,3.5,-,N/A,,Clear,120,2012-12-11 09:33:00
1:37 AM,42.8,39.2,87,30.10,0.5,SE,3.5,-,N/A,Fog,Fog,130,2012-12-11 09:37:00
1:50 AM,42.8,39.2,87,30.10,1.2,ESE,3.5,-,N/A,,Partly Cloudy,110,2012-12-11 09:50:00
1:53 AM,42.1,39.9,92,30.10,1.5,ESE,3.5,-,N/A,,Partly Cloudy,120,2012-12-11 09:53:00
2:01 AM,44.6,42.8,93,30.10,2.5,Calm,Calm,-,N/A,,Partly Cloudy,0,2012-12-11 10:01:00
2:15 AM,42.8,39.2,87,30.10,1.0,Calm,Calm,-,N/A,,Clear,0,2012-12-11 10:15:00
2:21 AM,42.8,39.2,87,30.10,0.5,Calm,Calm,-,N/A,Fog,Fog,0,2012-12-11 10:21:00
2:28 AM,39.2,37.4,93,30.10,0.2,Calm,Calm,-,N/A,Fog,Fog,0,2012-12-11 10:28:00
2:53 AM,41.0,37.9,89,30.10,0.2,Calm,Calm,-,N/A,Fog,Fog,0,2012-12-11 10:53:00
3:31 AM,41.0,37.4,87,30.10,0.5,Calm,Calm,-,N/A,Fog,Fog,0,2012-12-11 11:31:00
3:38 AM,39.2,37.4,93,30.10,0.2,Calm,Calm,-,N/A,Fog,Fog,0,2012-12-11 11:38:00
3:53 AM,37.9,36.0,93,30.10,0.8,SE,3.5,-,N/A,,Mist,130,2012-12-11 11:53:00
4:02 AM,41.0,37.4,87,30.09,1.2,SE,3.5,-,N/A,,Partly Cloudy,130,2012-12-11 12:02:00
4:36 AM,42.8,39.2,87,30.08,2.0,SE,4.6,-,N/A,,Clear,130,2012-12-11 12:36:00
4:53 AM,43.0,41.0,93,30.07,2.5,SE,4.6,-,N/A,,Clear,130,2012-12-11 12:53:00
5:53 AM,43.0,41.0,93,30.07,2.5,ESE,3.5,-,N/A,,Clear,110,2012-12-11 13:53:00
6:05 AM,42.8,41.0,93,30.07,4.0,ESE,3.5,-,N/A,,Clear,110,2012-12-11 14:05:00
6:53 AM,43.0,41.0,93,30.06,4.0,Calm,Calm,-,N/A,,Clear,0,2012-12-11 14:53:00
7:27 AM,42.8,41.0,93,30.06,2.5,Calm,Calm,-,N/A,,Clear,0,2012-12-11 15:27:00
7:43 AM,42.8,39.2,87,30.06,5.0,Calm,Calm,-,N/A,,Clear,0,2012-12-11 15:43:00
7:53 AM,39.9,39.0,97,30.06,5.0,Calm,Calm,-,N/A,,Clear,0,2012-12-11 15:53:00
8:53 AM,46.0,44.1,93,30.06,5.0,Calm,Calm,-,N/A,,Clear,0,2012-12-11 16:53:00
9:53 AM,52.0,46.0,80,30.05,4.0,SE,6.9,-,N/A,,Clear,140,2012-12-11 17:53:00
10:53 AM,54.0,46.9,77,30.02,4.0,Variable,6.9,-,N/A,,Clear,0,2012-12-11 18:53:00
11:53 AM,57.0,48.0,72,29.99,4.0,SSE,8.1,-,N/A,,Clear,160,2012-12-11 19:53:00
12:53 PM,59.0,48.0,67,29.95,5.0,South,9.2,-,N/A,,Clear,170,2012-12-11 20:53:00
1:53 PM,59.0,48.0,67,29.91,4.0,SSE,4.6,-,N/A,,Clear,160,2012-12-11 21:53:00
2:53 PM,59.0,48.0,67,29.90,4.0,SSW,8.1,-,N/A,,Clear,200,2012-12-11 22:53:00
3:53 PM,54.0,46.9,77,29.88,7.0,SW,9.2,-,N/A,,Clear,230,2012-12-11 23:53:00
4:53 PM,53.1,46.9,80,29.86,10.0,South,6.9,-,N/A,,Clear,190,2012-12-12 00:53:00
5:53 PM,53.1,46.9,80,29.84,10.0,South,6.9,-,N/A,,Clear,170,2012-12-12 01:53:00
6:53 PM,52.0,46.0,80,29.83,10.0,SSW,6.9,-,N/A,,Clear,200,2012-12-12 02:53:00
7:53 PM,51.1,44.1,77,29.85,10.0,SW,12.7,19.6,N/A,,Partly Cloudy,220,2012-12-12 03:53:00
8:53 PM,50.0,42.1,74,29.84,10.0,SSW,12.7,21.9,N/A,,Overcast,210,2012-12-12 04:53:00
9:53 PM,51.1,43.0,74,29.84,10.0,SW,11.5,19.6,N/A,,Overcast,220,2012-12-12 05:53:00
10:53 PM,51.1,44.1,77,29.85,10.0,SSW,8.1,-,0.00,,Overcast,210,2012-12-12 06:53:00
11:53 PM,51.1,44.1,77,29.86,10.0,SSW,6.9,-,N/A,,Overcast,200,2012-12-12 07:53:00